User: anonymous   Login
Location: Niverville
(49.6028°N, 97.0419°W)
Time: 11:31:50
(UTC-05:00)
Language:

BREEZE-M DEB (TANK) - Orbit

View from above orbital plane
View from above orbital plane
View from above satellite
View from above satellite

Ground track
Ground track

The orbit data is extracted from the following two-line orbital elements,

1 33374U 08044B   15149.86094968  .00001345  00000-0  60220-3 0  9992
2 33374 049.4513 088.6194 5432308 355.8174 020.2481 04.85647736117558
Epoch (UTC): 29 May 2015 20:39:46
Eccentricity: 0.5432308
inclination: 49.4513°
perigee height: 350 km
apogee height: 16353 km
right ascension of ascending node: 88.6194°
argument of perigee: 355.8174°
revolutions per day: 4.85647736
mean anomaly at epoch: 20.2481°
orbit number at epoch: 11755

The dashed part of the orbit path shows where the satellite is in the earth's shadow,  

DLR